Overview Statistics Trail Chart Weather Telemetry Raw packets
 

This is the latest recevied weather packets stored in our database for station/object DG0LHZ-10. If no packets are shown the sender has not sent any weather packets the latest 10 day(s).

<< 32 33 34 35 36 37 38 >>
Time Temp. Humidity Pressure Rain* Wind** Luminosity Snow
1787603251 18.33° C 40% 1021.6 hPa - - - -
1787602351 18.89° C 39% 1021.7 hPa - - - -
1787601451 19.44° C 39% 1021.7 hPa - - - -
1787600551 20° C 39% 1021.7 hPa - - - -
1787599651 20.56° C 39% 1021.8 hPa - - - -
1787598751 20.56° C 38% 1021.7 hPa - - - -
1787597851 21.11° C 38% 1021.7 hPa - - - -
1787596951 21.67° C 38% 1021.6 hPa - - - -
1787596051 22.22° C 37% 1021.8 hPa - - - -
1787595151 22.78° C 37% 1021.7 hPa - - - -
1787594251 23.33° C 37% 1021.7 hPa - - - -
1787593351 23.89° C 37% 1021.7 hPa - - - -
1787592451 24.44° C 36% 1021.8 hPa - - - -
1787591551 25° C 36% 1021.9 hPa - - - -
1787590651 25.56° C 36% 1022.2 hPa - - - -
1787589751 26.11° C 36% 1022.4 hPa - - - -
1787588851 26.67° C 35% 1022.4 hPa - - - -
1787587951 27.22° C 35% 1022.7 hPa - - - -
1787587050 27.22° C 35% 1022.9 hPa - - - -
1787586150 27.78° C 35% 1023 hPa - - - -
1787585250 27.78° C 35% 1023.2 hPa - - - -
1787584350 27.78° C 36% 1023.4 hPa - - - -
1787583450 27.78° C 36% 1023.6 hPa - - - -
1787582550 27.78° C 37% 1023.6 hPa - - - -
1787581650 27.22° C 38% 1023.8 hPa - - - -

* Rain since midnight (hover to see other rain measurements)
** Current wind speed in m/s (hover to see current wind gust speed)